STARLINK-32573, 61725

Orbit data source: Space-Track

STARLINK-32573, 61725 is a payload satellite owned by SpaceX/Seattle (US) in LEO that was launched on Wed, 30 Oct 2024 UTC via an FALCON 9 launch vehicle from the Air Force Eastern Test Range (AFETR). Payload-class satellites include a variety of spacecraft equipped with specific instruments for various scientific and technological missions. These include communications satellites like Starlink; space stations such as the ISS; scientific satellites like the Hubble; Earth observation satellites from companies like Planet Labs, Umbra, and HawkEye 360; GPS; miniature CubeSats for education and research; and military/defense satellites.

Loading next visibility...
Identifier
61725, 2024-196U
Orbit
LEO
Country
Flag of USUS
Related business
Manufacturer
SpaceX/Seattle
Mission
Operational Commercial Communications
Bus & Motor
STARLINK V2M, Unknown motor
Mass
730 kg wet, ~700 kg dry
Launch date (UTC)
2024-10-30 (1 year ago)
Launch vehicle
FALCON 9
Launch site
Air Force Eastern Test Range (AFETR)
Object type
Payload
Rocket body
Debris
Shape & HBR
Box + 2 Pan, 17.7 m
Radar Cross Section
33.884 m², Large (>1 m²)

Expand to show TLE details & history
Last TLE update: 6 hours ago

TLE from 6 hours ago
0 STARLINK-32573
1 61725U 24196U   25299.39626022  .00002170  00000-0  85406-4 0  9997
2 61725  53.1614   5.2633 0001185  94.2129 265.9008 15.30185080 56590
Epoch: 2025-10-26T09:30Z
TLE epoch observation values (Epoch: 2025-10-26T09:30:36.883Z)
Latitude
0.00007°
Longitude
-172.40339°
Altitude
476.218 km
Speed
7.629 km/s
True Right ascension
00h 21m 03s
True Declination
0° 00' 00"
Sunlit
Object was in full shadow at epoch
Visualization orbit readout
Latitude
Unknown
Longitude
Unknown
Altitude
Unknown
Speed
Unknown
Apparent Right ascension
Unknown
Apparent Declination
Unknown
Sunlit
N/A
Visualization observer readout
Local Sidereal Time
10:37:55
Azimuth
Unknown
Elevation
Unknown
Doppler factor
Unknown
Orbital elements
Apogee altitude
476.328 km
Perigee altitude
474.704 km
Semi-major axis
6,853.653 km
Eccentricity
0.00012
Inclination
53.1614°
RAAN
5.2633°
Arg. of periapsis
94.2129°
True anomaly
265.88726°
Mean anomaly
265.9008°
Eccentric anomaly
265.89403°
Mean motion
3.82525 °/min
Orbital period
94.11 mins
BSTAR
0.000085406
Loading maneuver chart data...
Computing Atmospheric mass density...
Loading historical data...
Loading historical data...
Loading historical data...
Loading historical data...
Loading historical data...
Loading historical data...
Loading historical data...

Documentation

Showing up to 5 results
|